COSMOS 2251 DEB

Satellite information

Favourite Embed

Satellite Type and Status

DEBRISIN ORBIT

Key statistics

Satellite COSMOS 2251 DEB at a glance.

Uptime

11869

Days in orbit

Revolutions

≈ 15.0

Per day

Orbit

LEO

Low Earth Orbit

Inclination

74.0

Latest

Satellite identification and parameters

Extended collection of information and parameters for COSMOS 2251 DEB.

Object identification

Identified? True

Debris? True

Object name: COSMOS 2251 DEB

International designator: 1993-036AGL

Object number (NORAD): 35023

Object ID (CCSDS): 35023

Country: COMMONWEALTH OF INDEPENDENT STATES (CIS)

Current information (Y/N): Y

RCS size: SMALL

Orbital parameters

Period: 96.311 minutes

Inclination: 74.0377 deg

SMA: 6960.047 km

Apoapsis: 605.559 km

Periapsis: 558.266 km

RAAN: 210.7413 deg

Eccentricy: 0.00339746

Argument of periapsis: 288.309 deg

Mean anomaly: 134.0066 deg

Mean motion: 14.95148996 rev/day

Mean motion (dot): 0.00018057 rev/day2

B* drag term: 0.0016253963 1/REarth

Two-line elements (TLE)

Creation date: Dec. 14, 2025, 3:07 a.m.

Reference frame: TEME

Reference center: EARTH

Epoch: Dec. 13, 2025, 3:42 p.m. UTC

TLE line 0: 0 COSMOS 2251 DEB

TLE line 1: 1 35023U 93036AGL 25347.65449481 .00018057 00000-0 16254-2 0 9997

TLE line 2: 2 35023 74.0377 210.7413 0033975 288.3090 134.0066 14.95148996882934

Live tracking on map

Real-time ground track for satellite COSMOS 2251 DEB.

In-orbit conjunctions

A list of the most updated potential collisions computed for object COSMOS 2251 DEB.

Target Orbit TCA Probability of collision Miss distance Type
YAOGAN 1 SSO 2025-12-13 19:07:21 0.0003558293 574.0 (m) PAYLOAD
SL-14 R/B LEO 2025-08-09 19:09:17 0.0004128464 159.0 (m) ROCKET BODY

Associated space launch

Military communications satellite. Destroyed in a collision with Iridium 33.

COSMOS 2251 DEB was lifted into orbit during the mission ‘Kosmos-3M | Strela-2M 51’, on board a Kosmos-3M space rocket.

The launch took place on June 16, 1993, 4:17 a.m. from 132/1 (132L).

For more information about the launch, click the button.

Launch to space Kosmos-3M | Strela-2M 51
Kosmos-3M | Strela-2M 51

Agency: N/A

Status: Launch Successful

Launch date: June 16, 1993, 4:17 a.m. UTC

Rocket: Kosmos-3M

Launch pad: 132/1 (132L)

Location: Plesetsk Cosmodrome, Russian Federation

...

Latest news about this satellite

There are no fresh news available about this satellite. Check back as we update our databases every day.


Newsletter sign-up

Weekly statistics, charts and insights to help you stay on top of the space industry.